| time (UTC) | temp F | wind direction | speed knots | gust knots | rain 1hr in | rain 24hr in | rain mn in | humidity % | barometer mb |
| 20260507201018 | 66 | 272 | 1.7 | 13.9 | 0.00 | 0.00 | 0.00 | 34 | 1014.3 |
| 20260507200018 | 66 | 357 | 1.7 | 10.4 | 0.00 | 0.00 | 0.00 | 36 | 1014.4 |
| 20260507195017 | 65 | 241 | 1.7 | 8.7 | 0.00 | 0.00 | 0.00 | 36 | 1014.5 |
| 20260507194517 | 65 | 251 | 3.5 | 10.4 | 0.00 | 0.00 | 0.00 | 38 | 1014.5 |
| 20260507194018 | 66 | 199 | 1.7 | 10.4 | 0.00 | 0.00 | 0.00 | 42 | 1014.6 |
| 20260507193517 | 66 | 16 | 3.5 | 10.4 | 0.00 | 0.00 | 0.00 | 38 | 1014.6 |
| 20260507193018 | 66 | 349 | 0.0 | 10.4 | 0.00 | 0.00 | 0.00 | 41 | 1014.6 |
| 20260507192517 | 66 | 247 | 1.7 | 10.4 | 0.00 | 0.00 | 0.00 | 40 | 1014.6 |
| 20260507192018 | 65 | 252 | 1.7 | 10.4 | 0.00 | 0.00 | 0.00 | 37 | 1014.5 |
| 20260507191518 | 66 | 26 | 3.5 | 12.2 | 0.00 | 0.00 | 0.00 | 36 | 1014.6 |
| 20260507191017 | 66 | 272 | 0.0 | 12.2 | 0.00 | 0.00 | 0.00 | 35 | 1014.7 |
| 20260507185517 | 65 | 86 | 1.7 | 8.7 | 0.00 | 0.00 | 0.00 | 36 | 1014.8 |
| 20260507185017 | 65 | 238 | 1.7 | 8.7 | 0.00 | 0.00 | 0.00 | 39 | 1014.9 |
| 20260507184517 | 65 | 188 | 3.5 | 8.7 | 0.00 | 0.00 | 0.00 | 36 | 1014.8 |
| 20260507184017 | 64 | 300 | 1.7 | 8.7 | 0.00 | 0.00 | 0.00 | 42 | 1014.9 |
| 20260507183517 | 65 | 58 | 8.7 | 12.2 | 0.00 | 0.00 | 0.00 | 40 | 1014.9 |
| 20260507183017 | 64 | 43 | 5.2 | 12.2 | 0.00 | 0.00 | 0.00 | 39 | 1015.0 |
| 20260507182517 | 65 | 339 | 5.2 | 12.2 | 0.00 | 0.00 | 0.00 | 36 | 1014.8 |
| 20260507182017 | 64 | 189 | 1.7 | 5.2 | 0.00 | 0.00 | 0.00 | 39 | 1015.1 |
| 20260507181517 | 63 | 92 | 1.7 | 7.0 | 0.00 | 0.00 | 0.00 | 37 | 1015.0 |
| 20260507180017 | 63 | 17 | 5.2 | 13.9 | 0.00 | 0.00 | 0.00 | 40 | 1015.1 |
| 20260507175517 | 63 | 53 | 1.7 | 13.9 | 0.00 | 0.00 | 0.00 | 37 | 1015.3 |
| 20260507174517 | 63 | 25 | 3.5 | 13.9 | 0.00 | 0.00 | 0.00 | 40 | 1015.1 |
| 20260507174017 | 63 | 254 | 5.2 | 10.4 | 0.00 | 0.00 | 0.00 | 43 | 1015.2 |
| 20260507173516 | 63 | 247 | 3.5 | 13.9 | 0.00 | 0.00 | 0.00 | 45 | 1015.3 |
| 20260507173017 | 63 | 337 | 5.2 | 13.9 | 0.00 | 0.00 | 0.00 | 43 | 1015.3 |
| 20260507172017 | 63 | 323 | 1.7 | 7.0 | 0.00 | 0.00 | 0.00 | 44 | 1015.6 |
| 20260507171516 | 62 | 150 | 0.0 | 8.7 | 0.00 | 0.00 | 0.00 | 42 | 1015.7 |
| 20260507171016 | 62 | 1 | 3.5 | 8.7 | 0.00 | 0.00 | 0.00 | 43 | 1015.7 |
| 20260507170516 | 62 | 50 | 5.2 | 10.4 | 0.00 | 0.00 | 0.00 | 46 | 1015.9 |
| 20260507170017 | 62 | 60 | 3.5 | 19.1 | 0.00 | 0.00 | 0.00 | 43 | 1016.0 |
| 20260507164516 | 61 | 75 | 3.5 | 15.6 | 0.00 | 0.00 | 0.00 | 43 | 1016.3 |
| 20260507164016 | 61 | 233 | 7.0 | 15.6 | 0.00 | 0.00 | 0.00 | 45 | 1016.2 |
| 20260507163516 | 61 | 326 | 5.2 | 8.7 | 0.00 | 0.00 | 0.00 | 46 | 1016.4 |
| 20260507163016 | 61 | 41 | 0.0 | 8.7 | 0.00 | 0.00 | 0.00 | 43 | 1016.1 |
| 20260507162016 | 61 | 261 | 1.7 | 12.2 | 0.00 | 0.00 | 0.00 | 44 | 1016.2 |
| 20260507161516 | 61 | 278 | 5.2 | 12.2 | 0.00 | 0.00 | 0.00 | 43 | 1016.3 |
| 20260507161016 | 61 | 278 | 3.5 | 7.0 | 0.00 | 0.00 | 0.00 | 48 | 1016.3 |
| 20260507160516 | 61 | 242 | 1.7 | 10.4 | 0.00 | 0.00 | 0.00 | 45 | 1016.3 |
| 20260507160016 | 61 | 227 | 3.5 | 10.4 | 0.00 | 0.00 | 0.00 | 45 | 1016.4 |
| 20260507155516 | 61 | 305 | 5.2 | 10.4 | 0.00 | 0.00 | 0.00 | 49 | 1016.5 |
| 20260507155016 | 60 | 186 | 3.5 | 8.7 | 0.00 | 0.00 | 0.00 | 48 | 1016.4 |
| 20260507154516 | 60 | 240 | 3.5 | 7.0 | 0.00 | 0.00 | 0.00 | 51 | 1016.4 |
| 20260507153516 | 59 | 313 | 1.7 | 8.7 | 0.00 | 0.00 | 0.00 | 49 | 1016.4 |
| 20260507153016 | 58 | 24 | 1.7 | 8.7 | 0.00 | 0.00 | 0.00 | 49 | 1016.3 |
| 20260507152016 | 58 | 349 | 3.5 | 13.9 | 0.00 | 0.00 | 0.00 | 51 | 1016.3 |
| 20260507151515 | 57 | 1 | 1.7 | 13.9 | 0.00 | 0.00 | 0.00 | 50 | 1016.1 |
| 20260507145516 | 57 | 84 | 1.7 | 7.0 | 0.00 | 0.00 | 0.00 | 54 | 1016.3 |
| 20260507145016 | 57 | 248 | 0.0 | 8.7 | 0.00 | 0.00 | 0.00 | 53 | 1016.2 |
| 20260507144516 | 56 | 338 | 3.5 | 10.4 | 0.00 | 0.00 | 0.00 | 50 | 1016.1 |
| 20260507144015 | 56 | 41 | 5.2 | 10.4 | 0.00 | 0.00 | 0.00 | 51 | 1016.2 |
| 20260507143515 | 56 | 331 | 1.7 | 10.4 | 0.00 | 0.00 | 0.00 | 52 | 1016.1 |
| 20260507142515 | 56 | 220 | 0.0 | 12.2 | 0.00 | 0.00 | 0.00 | 56 | 1016.2 |
| 20260507141516 | 55 | 300 | 3.5 | 12.2 | 0.00 | 0.00 | 0.00 | 54 | 1016.1 |
| 20260507141015 | 55 | 82 | 0.0 | 8.7 | 0.00 | 0.00 | 0.00 | 54 | 1016.1 |
| 20260507140515 | 55 | 306 | 3.5 | 10.4 | 0.00 | 0.00 | 0.00 | 55 | 1016.1 |
| 20260507140015 | 54 | 330 | 3.5 | 10.4 | 0.00 | 0.00 | 0.00 | 55 | 1016.1 |
| 20260507134515 | 54 | 62 | 5.2 | 10.4 | 0.00 | 0.00 | 0.00 | 55 | 1016.3 |
| 20260507134015 | 54 | 51 | 3.5 | 8.7 | 0.00 | 0.00 | 0.00 | 56 | 1016.3 |
| 20260507133515 | 55 | 337 | 5.2 | 8.7 | 0.00 | 0.00 | 0.00 | 55 | 1016.4 |
| 20260507133015 | 55 | 331 | 1.7 | 8.7 | 0.00 | 0.00 | 0.00 | 58 | 1016.4 |
| 20260507132015 | 54 | 297 | 1.7 | 7.0 | 0.00 | 0.00 | 0.00 | 60 | 1016.3 |
| 20260507131515 | 53 | 334 | 1.7 | 8.7 | 0.00 | 0.00 | 0.00 | 63 | 1016.2 |
| 20260507131015 | 52 | 38 | 0.0 | 8.7 | 0.00 | 0.00 | 0.00 | 65 | 1016.2 |
| 20260507130514 | 52 | 357 | 1.7 | 8.7 | 0.00 | 0.00 | 0.00 | 65 | 1016.2 |
| 20260507130015 | 52 | 44 | 5.2 | 8.7 | 0.00 | 0.00 | 0.00 | 64 | 1016.1 |
| 20260507125515 | 51 | 329 | 1.7 | 8.7 | 0.00 | 0.00 | 0.00 | 67 | 1016.3 |
| 20260507125015 | 51 | 359 | 7.0 | 10.4 | 0.00 | 0.00 | 0.00 | 68 | 1016.4 |
| 20260507124515 | 50 | 36 | 5.2 | 10.4 | 0.00 | 0.00 | 0.00 | 69 | 1016.4 |
| 20260507124014 | 50 | 88 | 3.5 | 10.4 | 0.00 | 0.00 | 0.00 | 68 | 1016.5 |
| 20260507123514 | 50 | 17 | 1.7 | 8.7 | 0.00 | 0.00 | 0.00 | 70 | 1016.4 |
| 20260507123015 | 50 | 24 | 3.5 | 8.7 | 0.00 | 0.00 | 0.00 | 70 | 1016.5 |
| 20260507122514 | 50 | 334 | 3.5 | 7.0 | 0.00 | 0.00 | 0.00 | 71 | 1016.6 |
| 20260507121514 | 50 | 266 | 1.7 | 7.0 | 0.00 | 0.00 | 0.00 | 74 | 1016.6 |
| 20260507120514 | 49 | 48 | 0.0 | 5.2 | 0.00 | 0.00 | 0.00 | 75 | 1016.6 |
| 20260507120014 | 48 | 34 | 1.7 | 7.0 | 0.00 | 0.00 | 0.00 | 77 | 1016.6 |
| 20260507115014 | 48 | 244 | 0.0 | 7.0 | 0.00 | 0.00 | 0.00 | 79 | 1016.7 |
| 20260507114014 | 47 | 221 | 5.2 | 5.2 | 0.00 | 0.00 | 0.00 | 81 | 1016.4 |
| 20260507113514 | 46 | 59 | 1.7 | 5.2 | 0.00 | 0.00 | 0.00 | 84 | 1016.4 |
| 20260507113014 | 45 | 18 | 0.0 | 5.2 | 0.00 | 0.00 | 0.00 | 87 | 1016.4 |
| 20260507112514 | 43 | 347 | 0.0 | 3.5 | 0.00 | 0.00 | 0.00 | 89 | 1016.3 |
| 20260507112014 | 42 | 7 | 0.0 | 1.7 | 0.00 | 0.00 | 0.00 | 90 | 1016.1 |
| 20260507111514 | 42 | 320 | 0.0 | 1.7 | 0.00 | 0.00 | 0.00 | 90 | 1016.0 |
| 20260507111013 | 42 | 261 | 0.0 | 3.5 | 0.00 | 0.00 | 0.00 | 91 | 1015.9 |
| 20260507110514 | 42 | 259 | 0.0 | 3.5 | 0.00 | 0.00 | 0.00 | 91 | 1015.8 |
| 20260507110014 | 42 | 22 | 0.0 | 3.5 | 0.00 | 0.00 | 0.00 | 91 | 1015.6 |
| 20260507105514 | 42 | 342 | 0.0 | 3.5 | 0.00 | 0.00 | 0.00 | 92 | 1015.6 |
| 20260507105014 | 42 | 8 | 0.0 | 1.7 | 0.00 | 0.00 | 0.00 | 92 | 1015.5 |
| 20260507104514 | 42 | 30 | 0.0 | 1.7 | 0.00 | 0.00 | 0.00 | 92 | 1015.5 |
| 20260507104015 | 42 | 282 | 0.0 | 1.7 | 0.00 | 0.00 | 0.00 | 92 | 1015.4 |
| 20260507103513 | 42 | 275 | 0.0 | 1.7 | 0.00 | 0.00 | 0.00 | 92 | 1015.5 |
| 20260507103013 | 42 | 41 | 0.0 | 1.7 | 0.00 | 0.00 | 0.00 | 92 | 1015.4 |
| 20260507102514 | 42 | 53 | 0.0 | 1.7 | 0.00 | 0.00 | 0.00 | 92 | 1015.4 |
| 20260507101513 | 42 | 350 | 0.0 | 1.7 | 0.00 | 0.00 | 0.00 | 92 | 1015.3 |
| 20260507100514 | 43 | 350 | 0.0 | 0.0 | 0.00 | 0.00 | 0.00 | 92 | 1015.5 |
| 20260507100013 | 43 | 350 | 0.0 | 1.7 | 0.00 | 0.00 | 0.00 | 92 | 1015.4 |
| 20260507095513 | 43 | 345 | 0.0 | 1.7 | 0.00 | 0.00 | 0.00 | 92 | 1015.5 |
| 20260507094513 | 42 | 86 | 1.7 | 1.7 | 0.00 | 0.00 | 0.00 | 92 | 1015.4 |
| 20260507093513 | 42 | 142 | 0.0 | 0.0 | 0.00 | 0.00 | 0.00 | 92 | 1015.3 |
| 20260507093013 | 42 | 142 | 0.0 | 0.0 | 0.00 | 0.01 | 0.00 | 92 | 1015.3 |
| 20260507092513 | 41 | 141 | 0.0 | 0.0 | 0.00 | 0.01 | 0.00 | 92 | 1015.1 |
| 20260507092013 | 41 | 141 | 0.0 | 0.0 | 0.00 | 0.01 | 0.00 | 92 | 1015.1 |
| 20260507091013 | 41 | 141 | 0.0 | 0.0 | 0.00 | 0.01 | 0.00 | 92 | 1015.0 |
| 20260507090513 | 41 | 141 | 0.0 | 0.0 | 0.00 | 0.01 | 0.00 | 92 | 1015.0 |
| 20260507090013 | 42 | 141 | 0.0 | 0.0 | 0.00 | 0.01 | 0.00 | 91 | 1015.1 |
| 20260507085512 | 42 | 141 | 0.0 | 0.0 | 0.00 | 0.01 | 0.00 | 91 | 1015.0 |
| 20260507085013 | 42 | 141 | 0.0 | 0.0 | 0.00 | 0.01 | 0.00 | 91 | 1015.1 |
| 20260507084512 | 42 | 141 | 0.0 | 0.0 | 0.00 | 0.01 | 0.00 | 91 | 1015.0 |
| 20260507083513 | 42 | 141 | 0.0 | 0.0 | 0.00 | 0.02 | 0.00 | 91 | 1015.0 |
| 20260507083013 | 42 | 141 | 0.0 | 0.0 | 0.00 | 0.02 | 0.00 | 91 | 1015.0 |
| 20260507082012 | 42 | 141 | 0.0 | 0.0 | 0.00 | 0.02 | 0.00 | 91 | 1014.9 |
| 20260507081512 | 42 | 142 | 0.0 | 0.0 | 0.00 | 0.03 | 0.00 | 91 | 1014.9 |
| 20260507081012 | 42 | 141 | 0.0 | 0.0 | 0.00 | 0.03 | 0.00 | 91 | 1014.9 |
| 20260507075512 | 43 | 141 | 0.0 | 0.0 | 0.00 | 0.03 | 0.00 | 91 | 1014.9 |
| 20260507075012 | 43 | 141 | 0.0 | 0.0 | 0.00 | 0.04 | 0.00 | 91 | 1014.9 |
| 20260507074512 | 43 | 141 | 0.0 | 0.0 | 0.00 | 0.05 | 0.00 | 91 | 1015.0 |
| 20260507074012 | 43 | 141 | 0.0 | 0.0 | 0.00 | 0.05 | 0.00 | 91 | 1015.0 |
| 20260507073512 | 43 | 141 | 0.0 | 0.0 | 0.00 | 0.06 | 0.00 | 91 | 1015.0 |
| 20260507072512 | 44 | 141 | 0.0 | 0.0 | 0.00 | 0.07 | 0.00 | 91 | 1015.0 |
| 20260507071012 | 44 | 141 | 0.0 | 0.0 | 0.00 | 0.09 | 0.00 | 91 | 1015.0 |
| 20260507070013 | 44 | 141 | 0.0 | 0.0 | 0.00 | 0.10 | 0.00 | 91 | 1015.0 |
| 20260507065512 | 44 | 141 | 0.0 | 0.0 | 0.00 | 0.10 | 0.00 | 91 | 1014.9 |
| 20260507065012 | 44 | 141 | 0.0 | 0.0 | 0.00 | 0.10 | 0.00 | 91 | 1014.9 |
| 20260507064512 | 44 | 141 | 0.0 | 0.0 | 0.00 | 0.11 | 0.00 | 90 | 1015.1 |
| 20260507064012 | 44 | 141 | 0.0 | 0.0 | 0.00 | 0.11 | 0.00 | 90 | 1015.1 |
| 20260507063011 | 44 | 142 | 0.0 | 0.0 | 0.00 | 0.16 | 0.00 | 90 | 1015.0 |
| 20260507062011 | 44 | 142 | 0.0 | 0.0 | 0.00 | 0.17 | 0.00 | 90 | 1015.4 |
| 20260507061511 | 44 | 142 | 0.0 | 0.0 | 0.00 | 0.17 | 0.00 | 90 | 1015.4 |
| 20260507061011 | 44 | 141 | 0.0 | 0.0 | 0.00 | 0.17 | 0.00 | 90 | 1015.5 |
| 20260507060512 | 44 | 142 | 0.0 | 0.0 | 0.00 | 0.18 | 0.00 | 89 | 1015.2 |
| 20260507060011 | 44 | 142 | 0.0 | 0.0 | 0.00 | 0.18 | 0.00 | 89 | 1015.2 |
| 20260507055511 | 44 | 142 | 0.0 | 0.0 | 0.00 | 0.18 | 0.00 | 89 | 1015.1 |
| 20260507055011 | 44 | 141 | 0.0 | 0.0 | 0.00 | 0.19 | 0.00 | 88 | 1015.1 |
| 20260507054512 | 45 | 141 | 0.0 | 0.0 | 0.00 | 0.23 | 0.00 | 88 | 1015.1 |
| 20260507054011 | 45 | 141 | 0.0 | 0.0 | 0.00 | 0.26 | 0.00 | 88 | 1015.0 |
| 20260507053511 | 45 | 142 | 0.0 | 0.0 | 0.00 | 0.32 | 0.00 | 87 | 1015.0 |
| 20260507053011 | 46 | 141 | 0.0 | 0.0 | 0.00 | 0.38 | 0.00 | 87 | 1015.1 |
| 20260507052011 | 46 | 141 | 0.0 | 0.0 | 0.00 | 0.38 | 0.00 | 87 | 1015.1 |
| 20260507051011 | 47 | 141 | 0.0 | 0.0 | 0.00 | 0.38 | 0.00 | 87 | 1015.2 |
| 20260507050511 | 47 | 141 | 0.0 | 0.0 | 0.00 | 0.38 | 0.00 | 87 | 1015.1 |
| 20260507050011 | 47 | 141 | 0.0 | 0.0 | 0.00 | 0.38 | 0.00 | 87 | 1015.2 |
| 20260507045510 | 47 | 141 | 0.0 | 0.0 | 0.00 | 0.38 | 0.00 | 86 | 1015.2 |
| 20260507045011 | 47 | 141 | 0.0 | 0.0 | 0.00 | 0.38 | 0.00 | 86 | 1015.0 |
| 20260507044011 | 47 | 142 | 0.0 | 0.0 | 0.00 | 0.38 | 0.00 | 85 | 1015.2 |
| 20260507043510 | 47 | 141 | 0.0 | 0.0 | 0.00 | 0.38 | 0.00 | 85 | 1015.3 |
| 20260507043011 | 47 | 141 | 0.0 | 0.0 | 0.00 | 0.39 | 0.00 | 85 | 1015.2 |
| 20260507042510 | 47 | 142 | 0.0 | 0.0 | 0.00 | 0.39 | 0.00 | 85 | 1015.3 |
| 20260507042010 | 47 | 141 | 0.0 | 0.0 | 0.00 | 0.39 | 0.00 | 84 | 1015.2 |
| 20260507041010 | 48 | 141 | 0.0 | 0.0 | 0.00 | 0.41 | 0.00 | 82 | 1015.3 |
| 20260507040510 | 48 | 141 | 0.0 | 0.0 | 0.00 | 0.41 | 0.00 | 82 | 1015.3 |
| 20260507040010 | 48 | 141 | 0.0 | 0.0 | 0.00 | 0.41 | 0.00 | 82 | 1015.4 |
| 20260507035510 | 48 | 141 | 0.0 | 0.0 | 0.00 | 0.41 | 0.41 | 83 | 1015.3 |
| 20260507035010 | 48 | 141 | 0.0 | 0.0 | 0.00 | 0.41 | 0.41 | 82 | 1015.3 |
| 20260507034510 | 48 | 141 | 0.0 | 0.0 | 0.00 | 0.41 | 0.41 | 82 | 1015.3 |
| 20260507034010 | 48 | 141 | 0.0 | 0.0 | 0.00 | 0.41 | 0.41 | 82 | 1015.3 |
| 20260507033510 | 48 | 142 | 0.0 | 0.0 | 0.00 | 0.42 | 0.41 | 81 | 1015.2 |
| 20260507033010 | 48 | 141 | 0.0 | 0.0 | 0.00 | 0.42 | 0.41 | 81 | 1015.2 |
| 20260507032510 | 48 | 141 | 0.0 | 0.0 | 0.00 | 0.42 | 0.41 | 81 | 1015.2 |
| 20260507032010 | 48 | 141 | 0.0 | 0.0 | 0.00 | 0.42 | 0.41 | 80 | 1015.1 |
| 20260507031510 | 49 | 142 | 0.0 | 0.0 | 0.00 | 0.42 | 0.41 | 79 | 1015.1 |
| 20260507031010 | 49 | 142 | 0.0 | 0.0 | 0.00 | 0.42 | 0.41 | 79 | 1015.1 |
| 20260507030010 | 49 | 141 | 0.0 | 0.0 | 0.00 | 0.43 | 0.41 | 77 | 1015.0 |
| 20260507025510 | 49 | 141 | 0.0 | 0.0 | 0.00 | 0.43 | 0.41 | 77 | 1014.9 |
| 20260507025010 | 50 | 141 | 0.0 | 0.0 | 0.00 | 0.43 | 0.41 | 77 | 1014.8 |
| 20260507024509 | 50 | 141 | 0.0 | 0.0 | 0.00 | 0.43 | 0.41 | 76 | 1014.7 |
| 20260507023509 | 50 | 142 | 0.0 | 0.0 | 0.00 | 0.43 | 0.41 | 76 | 1014.7 |
| 20260507023009 | 50 | 141 | 0.0 | 0.0 | 0.00 | 0.43 | 0.41 | 76 | 1014.7 |
| 20260507022009 | 50 | 141 | 0.0 | 0.0 | 0.00 | 0.43 | 0.41 | 75 | 1014.4 |
| 20260507021510 | 51 | 141 | 0.0 | 0.0 | 0.00 | 0.43 | 0.41 | 75 | 1014.3 |
| 20260507021009 | 51 | 141 | 0.0 | 0.0 | 0.00 | 0.43 | 0.41 | 74 | 1014.4 |
| 20260507020509 | 51 | 141 | 0.0 | 0.0 | 0.00 | 0.43 | 0.41 | 74 | 1014.4 |
| 20260507015509 | 52 | 141 | 0.0 | 0.0 | 0.00 | 0.43 | 0.41 | 73 | 1014.2 |
| 20260507015009 | 53 | 141 | 0.0 | 0.0 | 0.00 | 0.44 | 0.41 | 72 | 1014.1 |
| 20260507014509 | 53 | 141 | 0.0 | 0.0 | 0.00 | 0.44 | 0.41 | 70 | 1014.1 |
| 20260507014009 | 54 | 140 | 0.0 | 0.0 | 0.00 | 0.44 | 0.41 | 70 | 1014.0 |
| 20260507013009 | 54 | 141 | 0.0 | 0.0 | 0.00 | 0.44 | 0.41 | 68 | 1014.1 |
| 20260507012509 | 54 | 141 | 0.0 | 0.0 | 0.00 | 0.44 | 0.41 | 68 | 1014.2 |
| 20260507011009 | 55 | 24 | 0.0 | 5.2 | 0.00 | 0.44 | 0.41 | 66 | 1014.1 |
| 20260507010514 | 56 | 76 | 1.7 | 3.5 | 0.00 | 0.44 | 0.41 | 66 | 1014.1 |
| 20260507010009 | 56 | 357 | 0.0 | 3.5 | 0.00 | 0.44 | 0.41 | 65 | 1014.2 |
| 20260507005509 | 56 | 269 | 0.0 | 10.4 | 0.00 | 0.44 | 0.41 | 65 | 1014.1 |
| 20260507004509 | 57 | 211 | 1.7 | 8.7 | 0.00 | 0.44 | 0.41 | 65 | 1014.0 |
| 20260507004009 | 57 | 263 | 0.0 | 8.7 | 0.00 | 0.44 | 0.41 | 64 | 1014.0 |
| 20260507003509 | 57 | 343 | 0.0 | 3.5 | 0.00 | 0.44 | 0.41 | 66 | 1014.0 |
| 20260507003009 | 57 | 45 | 0.0 | 3.5 | 0.00 | 0.44 | 0.41 | 66 | 1013.9 |
| 20260507002008 | 57 | 220 | 0.0 | 3.5 | 0.00 | 0.45 | 0.41 | 65 | 1013.9 |
| 20260507001509 | 57 | 219 | 0.0 | 3.5 | 0.00 | 0.46 | 0.41 | 65 | 1013.7 |
| 20260507001008 | 57 | 113 | 0.0 | 3.5 | 0.00 | 0.47 | 0.41 | 65 | 1013.8 |
| 20260507000509 | 58 | 236 | 1.7 | 5.2 | 0.00 | 0.47 | 0.41 | 65 | 1013.5 |
| 20260507000008 | 58 | 234 | 0.0 | 5.2 | 0.00 | 0.47 | 0.41 | 65 | 1013.4 |
| 20260506235508 | 58 | 202 | 0.0 | 1.7 | 0.00 | 0.47 | 0.41 | 66 | 1013.4 |
| 20260506235008 | 58 | 346 | 0.0 | 3.5 | 0.00 | 0.47 | 0.41 | 65 | 1013.3 |
| 20260506234508 | 58 | 322 | 0.0 | 3.5 | 0.00 | 0.47 | 0.41 | 65 | 1013.5 |
| 20260506234008 | 58 | 230 | 0.0 | 3.5 | 0.00 | 0.47 | 0.41 | 64 | 1013.6 |
| 20260506233508 | 59 | 216 | 0.0 | 1.7 | 0.00 | 0.47 | 0.41 | 64 | 1013.4 |
| 20260506233008 | 59 | 210 | 1.7 | 5.2 | 0.00 | 0.47 | 0.41 | 64 | 1013.3 |
| 20260506232508 | 59 | 209 | 0.0 | 5.2 | 0.00 | 0.47 | 0.41 | 63 | 1013.4 |
| 20260506232008 | 59 | 103 | 3.5 | 3.5 | 0.00 | 0.47 | 0.41 | 62 | 1013.3 |
| 20260506231508 | 59 | 27 | 0.0 | 3.5 | 0.00 | 0.48 | 0.41 | 62 | 1013.1 |
| 20260506231008 | 59 | 27 | 0.0 | 3.5 | 0.00 | 0.48 | 0.41 | 61 | 1013.2 |
| 20260506230508 | 59 | 242 | 0.0 | 3.5 | 0.00 | 0.48 | 0.41 | 61 | 1013.6 |
| 20260506230008 | 59 | 53 | 0.0 | 3.5 | 0.00 | 0.48 | 0.41 | 61 | 1013.0 |
| 20260506225508 | 59 | 280 | 0.0 | 3.5 | 0.00 | 0.48 | 0.41 | 60 | 1012.8 |
| 20260506225008 | 59 | 3 | 1.7 | 3.5 | 0.00 | 0.48 | 0.41 | 60 | 1012.7 |
| 20260506224508 | 59 | 218 | 0.0 | 3.5 | 0.00 | 0.48 | 0.41 | 61 | 1012.5 |
| 20260506224008 | 60 | 254 | 1.7 | 7.0 | 0.00 | 0.48 | 0.41 | 59 | 1012.5 |
| 20260506223508 | 60 | 177 | 0.0 | 7.0 | 0.00 | 0.48 | 0.41 | 59 | 1012.8 |
| 20260506223008 | 60 | 223 | 3.5 | 5.2 | 0.00 | 0.48 | 0.41 | 57 | 1012.9 |
| 20260506222507 | 61 | 354 | 0.0 | 3.5 | 0.00 | 0.48 | 0.41 | 58 | 1012.4 |
| 20260506222008 | 60 | 359 | 0.0 | 7.0 | 0.00 | 0.48 | 0.41 | 58 | 1012.8 |
| 20260506221507 | 60 | 221 | 3.5 | 7.0 | 0.00 | 0.48 | 0.41 | 59 | 1012.8 |
| 20260506221007 | 60 | 31 | 1.7 | 7.0 | 0.00 | 0.48 | 0.41 | 58 | 1012.5 |
| 20260506220507 | 60 | 210 | 3.5 | 7.0 | 0.00 | 0.48 | 0.41 | 58 | 1012.3 |
| 20260506220007 | 60 | 317 | 0.0 | 7.0 | 0.00 | 0.48 | 0.41 | 59 | 1012.4 |
| 20260506215008 | 61 | 11 | 1.7 | 5.2 | 0.00 | 0.48 | 0.41 | 59 | 1012.8 |
| 20260506214508 | 61 | 199 | 0.0 | 5.2 | 0.00 | 0.48 | 0.41 | 60 | 1012.7 |
| 20260506214008 | 61 | 346 | 0.0 | 5.2 | 0.00 | 0.48 | 0.41 | 60 | 1012.8 |
| 20260506213507 | 61 | 324 | 3.5 | 7.0 | 0.00 | 0.48 | 0.41 | 59 | 1013.0 |
| 20260506213007 | 62 | 318 | 1.7 | 7.0 | 0.00 | 0.48 | 0.41 | 58 | 1013.3 |
| 20260506212007 | 62 | 248 | 1.7 | 7.0 | 0.00 | 0.48 | 0.41 | 58 | 1013.0 |
| 20260506211507 | 62 | 45 | 3.5 | 7.0 | 0.00 | 0.48 | 0.41 | 60 | 1012.9 |
| 20260506211007 | 63 | 31 | 1.7 | 7.0 | 0.00 | 0.48 | 0.41 | 57 | 1012.9 |
| 20260506210507 | 63 | 237 | 3.5 | 7.0 | 0.00 | 0.48 | 0.41 | 57 | 1013.1 |
| 20260506210007 | 63 | 324 | 0.0 | 5.2 | 0.00 | 0.48 | 0.41 | 57 | 1012.9 |
| 20260506205507 | 63 | 19 | 3.5 | 8.7 | 0.00 | 0.48 | 0.41 | 56 | 1012.9 |
| 20260506205007 | 64 | 235 | 0.0 | 10.4 | 0.00 | 0.48 | 0.41 | 57 | 1013.1 |
| 20260506204007 | 64 | 206 | 5.2 | 10.4 | 0.00 | 0.48 | 0.41 | 57 | 1012.9 |
| 20260506203507 | 65 | 49 | 3.5 | 7.0 | 0.00 | 0.48 | 0.41 | 56 | 1012.9 |
| 20260506203007 | 65 | 302 | 0.0 | 8.7 | 0.00 | 0.48 | 0.41 | 55 | 1012.8 |
| 20260506202507 | 65 | 259 | 1.7 | 8.7 | 0.00 | 0.48 | 0.41 | 58 | 1012.8 |
| 20260506202007 | 65 | 216 | 3.5 | 8.7 | 0.00 | 0.48 | 0.41 | 61 | 1012.6 |
| 20260506201507 | 65 | 50 | 3.5 | 8.7 | 0.00 | 0.48 | 0.41 | 56 | 1013.0 |